Location: Wien
(48.2082°N, 16.3738°E)
Time: 01:02:16
(UTC+02:00)

Vanguard 3 - Visible Passes

Search period start: 13 July 2024 00:00
Search period end: 23 July 2024 00:00
Orbit: 508 x 3231 km, 33.4° (Epoch: 12 July)

Date Brightness Start Highest point End Pass type
(mag) Time Alt. Az. Time Alt. Az. Time Alt. Az.
13 Jul 10.5 01:46:29 21° S 01:53:58 27° SE 02:08:20 10° E visible
13 Jul 10.4 03:50:36 11° SW 04:07:21 45° SSE 04:23:43 10° E visible
14 Jul 10.7 00:31:52 16° SE 00:34:53 17° SE 00:44:52 10° E visible
14 Jul 10.4 02:35:59 20° SSW 02:47:03 37° SSE 03:03:27 10° E visible
15 Jul 10.4 01:21:19 23° SSE 01:27:21 28° SE 01:41:58 10° E visible
15 Jul 10.3 03:25:27 14° SW 03:40:36 45° SSE 03:57:43 10° E visible
16 Jul 10.6 00:06:38 17° SE 00:08:26 17° SE 00:18:23 10° E visible
16 Jul 10.3 02:10:45 23° SSW 02:20:20 38° SSE 02:37:08 10° E visible
16 Jul 10.3 04:16:56 10° WSW 04:34:27 50° S 04:51:28 10° ESE visible
17 Jul 10.3 00:56:01 25° SSE 01:00:46 28° SE 01:15:23 10° E visible
17 Jul 10.3 03:00:08 16° SW 03:13:49 46° SSE 03:31:28 10° E visible
17 Jul 10.5 23:41:14 17° SE 23:42:01 17° SE 23:51:40 10° E visible
18 Jul 10.2 01:45:21 25° SSW 01:53:39 38° SSE 02:10:34 10° E visible
18 Jul 10.3 03:50:49 10° WSW 04:07:38 50° S 04:25:19 10° ESE visible
19 Jul 10.1 00:30:31 26° SSE 00:34:15 28° SE 00:48:34 10° E visible
19 Jul 10.2 02:34:37 18° SW 02:47:04 46° SSE 03:05:00 10° E visible
19 Jul 10.4 23:15:38 17° SE 23:15:42 17° SE 23:24:46 10° E visible
20 Jul 10.0 01:19:44 27° SSW 01:27:02 38° SSE 01:43:48 10° E visible
20 Jul 10.2 03:24:51 10° WSW 03:40:49 50° S 03:58:56 10° ESE visible
21 Jul 10.0 00:04:46 26° SSE 00:07:49 28° SE 00:21:37 10° E visible
21 Jul 10.0 02:08:52 18° SW 02:20:21 46° SSE 02:38:18 10° ESE visible
21 Jul 10.3 04:18:12 10° WSW 04:34:42 48° S 04:52:21 10° ESE visible
21 Jul 10.3 22:49:42 16° SE 22:49:42 16° SE 22:57:44 10° E visible
22 Jul 9.9 00:53:47 26° SSW 01:00:30 38° SSE 01:16:51 10° E visible
22 Jul 10.1 02:59:04 10° WSW 03:14:02 49° S 03:32:19 10° ESE visible
